Terminal Aerodrome Forecast
Issued by NWS

Home | Current Version | Previous Version | Graphics & Text | Print | Product List | Glossary On
Versions: 1 2 3 4 5 6 7 8 9 10 11 12
000
FTUS43 KGRB 030520
TAFATW
TAF
KATW 030520Z 0306/0406 VRB03KT P6SM SCT250
     FM031500 23009KT P6SM SCT050 BKN250
     FM040100 24004KT P6SM SCT050 SCT080=

USA.gov is the U.S. government's official web portal to all federal, state and local government web resources and services.